Time,TemperatureF,DewpointF,PressureIn,WindDirection,WindDirectionDegrees,WindSpeedMPH,WindSpeedGustMPH,Humidity,HourlyPrecipIn,Conditions,Clouds,dailyrainin,SoftwareType,DateUTC
2014-01-22 00:00:00,53.6,9.8,30.45,West,260,4.0,8.0,17,0.00,,,0.00,Wunderground v.1.15,2014-01-22 08:00:00,
2014-01-22 00:10:00,52.9,10.5,30.45,West,269,4.0,8.0,18,0.00,,,0.00,Wunderground v.1.15,2014-01-22 08:10:00,
2014-01-22 00:15:00,52.7,10.3,30.45,West,261,5.0,8.0,18,0.00,,,0.00,Wunderground v.1.15,2014-01-22 08:15:00,
2014-01-22 00:20:00,52.8,10.4,30.45,West,262,5.0,5.0,18,0.00,,,0.00,Wunderground v.1.15,2014-01-22 08:20:00,
2014-01-22 00:30:00,53.0,10.6,30.45,West,267,4.0,8.0,18,0.00,,,0.00,Wunderground v.1.15,2014-01-22 08:30:00,
2014-01-22 00:35:00,53.3,10.8,30.45,West,267,4.0,8.0,18,0.00,,,0.00,Wunderground v.1.15,2014-01-22 08:35:00,
2014-01-22 00:45:00,53.5,11.0,30.44,WNW,283,4.0,8.0,18,0.00,,,0.00,Wunderground v.1.15,2014-01-22 08:45:00,
2014-01-22 00:50:00,53.6,11.0,30.44,West,264,4.0,4.0,18,0.00,,,0.00,Wunderground v.1.15,2014-01-22 08:50:00,
2014-01-22 01:00:00,53.4,10.9,30.44,West,263,5.0,8.0,18,0.00,,,0.00,Wunderground v.1.15,2014-01-22 09:00:00,
2014-01-22 01:10:00,53.4,10.9,30.43,WSW,257,5.0,5.0,18,0.00,,,0.00,Wunderground v.1.15,2014-01-22 09:10:00,
2014-01-22 01:15:00,53.5,11.0,30.44,West,266,5.0,8.0,18,0.00,,,0.00,Wunderground v.1.15,2014-01-22 09:15:00,
2014-01-22 01:25:00,53.7,11.1,30.44,West,261,4.0,8.0,18,0.00,,,0.00,Wunderground v.1.15,2014-01-22 09:25:00,
2014-01-22 01:30:00,53.5,11.0,30.43,WSW,248,4.0,8.0,18,0.00,,,0.00,Wunderground v.1.15,2014-01-22 09:30:00,
2014-01-22 01:35:00,53.3,10.8,30.43,WSW,256,5.0,8.0,18,0.00,,,0.00,Wunderground v.1.15,2014-01-22 09:35:00,
2014-01-22 01:45:00,53.5,11.0,30.43,WSW,254,5.0,8.0,18,0.00,,,0.00,Wunderground v.1.15,2014-01-22 09:45:00,
2014-01-22 01:50:00,53.6,11.0,30.43,WSW,252,4.0,8.0,18,0.00,,,0.00,Wunderground v.1.15,2014-01-22 09:50:00,
2014-01-22 02:00:00,53.4,10.9,30.42,WSW,254,4.0,4.0,18,0.00,,,0.00,Wunderground v.1.15,2014-01-22 10:00:00,
2014-01-22 02:05:00,53.4,10.9,30.42,WSW,255,3.0,6.0,18,0.00,,,0.00,Wunderground v.1.15,2014-01-22 10:05:00,
2014-01-22 02:15:00,53.9,10.0,30.42,West,267,3.0,8.0,17,0.00,,,0.00,Wunderground v.1.15,2014-01-22 10:15:00,
2014-01-22 02:20:00,54.4,10.4,30.42,WSW,248,3.0,8.0,17,0.00,,,0.00,Wunderground v.1.15,2014-01-22 10:20:00,
2014-01-22 02:30:00,54.8,10.7,30.42,West,263,3.0,8.0,17,0.00,,,0.00,Wunderground v.1.15,2014-01-22 10:30:00,
2014-01-22 02:35:00,54.4,10.4,30.42,WSW,239,3.0,8.0,17,0.00,,,0.00,Wunderground v.1.15,2014-01-22 10:35:00,
2014-01-22 02:40:00,54.3,10.3,30.41,WSW,244,4.0,4.0,17,0.00,,,0.00,Wunderground v.1.15,2014-01-22 10:40:00,
2014-01-22 02:50:00,54.7,10.7,30.41,WSW,241,2.0,7.0,17,0.00,,,0.00,Wunderground v.1.15,2014-01-22 10:50:00,
2014-01-22 03:00:00,54.6,10.6,30.41,WSW,243,2.0,2.0,17,0.00,,,0.00,Wunderground v.1.15,2014-01-22 11:00:00,
2014-01-22 03:05:00,54.6,10.6,30.40,SW,235,2.0,4.0,17,0.00,,,0.00,Wunderground v.1.15,2014-01-22 11:05:00,
2014-01-22 03:15:00,54.6,10.6,30.40,SW,235,3.0,7.0,17,0.00,,,0.00,Wunderground v.1.15,2014-01-22 11:15:00,
2014-01-22 03:20:00,54.5,10.5,30.40,SW,235,2.0,2.0,17,0.00,,,0.00,Wunderground v.1.15,2014-01-22 11:20:00,
2014-01-22 03:30:00,54.6,10.6,30.39,SW,235,0.0,7.0,17,0.00,,,0.00,Wunderground v.1.15,2014-01-22 11:30:00,
2014-01-22 03:35:00,55.1,11.0,30.39,SW,222,1.0,7.0,17,0.00,,,0.00,Wunderground v.1.15,2014-01-22 11:35:00,
2014-01-22 03:45:00,55.4,11.2,30.39,SSW,207,2.0,5.0,17,0.00,,,0.00,Wunderground v.1.15,2014-01-22 11:45:00,
2014-01-22 03:50:00,55.8,10.2,30.39,SSW,207,2.0,2.0,16,0.00,,,0.00,Wunderground v.1.15,2014-01-22 11:50:00,
2014-01-22 04:00:00,55.9,10.3,30.38,SSW,198,2.0,5.0,16,0.00,,,0.00,Wunderground v.1.15,2014-01-22 12:00:00,
2014-01-22 04:05:00,56.0,10.4,30.38,South,188,2.0,5.0,16,0.00,,,0.00,Wunderground v.1.15,2014-01-22 12:05:00,
2014-01-22 04:10:00,55.9,10.3,30.38,South,187,2.0,5.0,16,0.00,,,0.00,Wunderground v.1.15,2014-01-22 12:10:00,
2014-01-22 04:20:00,55.8,10.2,30.38,South,172,2.0,5.0,16,0.00,,,0.00,Wunderground v.1.15,2014-01-22 12:20:00,
2014-01-22 04:25:00,56.0,10.4,30.37,SSE,163,2.0,5.0,16,0.00,,,0.00,Wunderground v.1.15,2014-01-22 12:25:00,
2014-01-22 04:30:00,56.2,10.5,30.37,South,169,3.0,3.0,16,0.00,,,0.00,Wunderground v.1.15,2014-01-22 12:30:00,
2014-01-22 04:35:00,56.2,10.5,30.37,South,169,1.0,7.0,16,0.00,,,0.00,Wunderground v.1.15,2014-01-22 12:35:00,
2014-01-22 04:45:00,56.2,10.5,30.37,South,169,1.0,7.0,16,0.00,,,0.00,Wunderground v.1.15,2014-01-22 12:45:00,
2014-01-22 04:50:00,56.2,10.5,30.37,South,173,2.0,7.0,16,0.00,,,0.00,Wunderground v.1.15,2014-01-22 12:50:00,
2014-01-22 04:55:00,56.4,10.7,30.37,South,173,2.0,7.0,16,0.00,,,0.00,Wunderground v.1.15,2014-01-22 12:55:00,
2014-01-22 05:05:00,56.7,10.9,30.37,South,175,4.0,4.0,16,0.00,,,0.00,Wunderground v.1.15,2014-01-22 13:05:00,
2014-01-22 05:10:00,56.4,10.7,30.37,South,175,3.0,3.0,16,0.00,,,0.00,Wunderground v.1.15,2014-01-22 13:10:00,
2014-01-22 05:15:00,56.3,10.6,30.37,South,177,3.0,6.0,16,0.00,,,0.00,Wunderground v.1.15,2014-01-22 13:15:00,
2014-01-22 05:20:00,56.2,10.5,30.37,South,178,3.0,3.0,16,0.00,,,0.00,Wunderground v.1.15,2014-01-22 13:20:00,
2014-01-22 05:30:00,56.0,10.4,30.37,South,179,3.0,6.0,16,0.00,,,0.00,Wunderground v.1.15,2014-01-22 13:30:00,
2014-01-22 05:35:00,55.7,10.1,30.37,South,187,3.0,8.0,16,0.00,,,0.00,Wunderground v.1.15,2014-01-22 13:35:00,
2014-01-22 05:45:00,55.5,10.0,30.36,South,190,2.0,6.0,16,0.00,,,0.00,Wunderground v.1.15,2014-01-22 13:45:00,
2014-01-22 05:50:00,55.9,10.3,30.36,South,182,3.0,3.0,16,0.00,,,0.00,Wunderground v.1.15,2014-01-22 13:50:00,
2014-01-22 06:00:00,55.9,10.3,30.36,South,183,3.0,3.0,16,0.00,,,0.00,Wunderground v.1.15,2014-01-22 14:00:00,
2014-01-22 06:05:00,55.7,10.1,30.36,South,189,3.0,7.0,16,0.00,,,0.00,Wunderground v.1.15,2014-01-22 14:05:00,
2014-01-22 06:15:00,54.1,10.2,30.36,WSW,244,3.0,7.0,17,0.00,,,0.00,Wunderground v.1.15,2014-01-22 14:15:00,
2014-01-22 06:20:00,53.7,9.8,30.36,WSW,254,4.0,7.0,17,0.00,,,0.00,Wunderground v.1.15,2014-01-22 14:20:00,
2014-01-22 06:30:00,53.2,9.4,30.36,WSW,254,3.0,7.0,17,0.00,,,0.00,Wunderground v.1.15,2014-01-22 14:30:00,
2014-01-22 06:35:00,53.1,9.4,30.36,West,260,3.0,7.0,17,0.00,,,0.00,Wunderground v.1.15,2014-01-22 14:35:00,
2014-01-22 06:45:00,52.4,10.1,30.37,West,266,4.0,7.0,18,0.00,,,0.00,Wunderground v.1.15,2014-01-22 14:45:00,
2014-01-22 06:55:00,52.1,9.8,30.37,West,259,4.0,7.0,18,0.00,,,0.00,Wunderground v.1.15,2014-01-22 14:55:00,
2014-01-22 07:00:00,51.9,9.6,30.37,West,259,4.0,7.0,18,0.00,,,0.00,Wunderground v.1.15,2014-01-22 15:00:00,
2014-01-22 07:05:00,51.8,9.6,30.37,West,260,4.0,7.0,18,0.00,,,0.00,Wunderground v.1.15,2014-01-22 15:05:00,
2014-01-22 07:15:00,52.4,10.1,30.36,West,260,3.0,7.0,18,0.00,,,0.00,Wunderground v.1.15,2014-01-22 15:15:00,
2014-01-22 07:20:00,52.9,10.5,30.36,West,261,3.0,3.0,18,0.00,,,0.00,Wunderground v.1.15,2014-01-22 15:20:00,
2014-01-22 07:25:00,53.5,11.0,30.37,West,261,2.0,7.0,18,0.00,,,0.00,Wunderground v.1.15,2014-01-22 15:25:00,
2014-01-22 07:35:00,55.2,11.1,30.37,West,261,2.0,7.0,17,0.00,,,0.00,Wunderground v.1.15,2014-01-22 15:35:00,
2014-01-22 07:45:00,56.7,10.9,30.37,West,261,2.0,6.0,16,0.00,,,0.00,Wunderground v.1.15,2014-01-22 15:45:00,
2014-01-22 07:50:00,57.2,9.9,30.36,WSW,247,2.0,6.0,15,0.00,,,0.00,Wunderground v.1.15,2014-01-22 15:50:00,
2014-01-22 08:00:00,57.6,10.2,30.36,SW,228,1.0,5.0,15,0.00,,,0.00,Wunderground v.1.15,2014-01-22 16:00:00,
2014-01-22 08:05:00,57.6,10.2,30.36,SW,227,2.0,5.0,15,0.00,,,0.00,Wunderground v.1.15,2014-01-22 16:05:00,
2014-01-22 08:15:00,57.7,10.3,30.37,SSW,212,2.0,5.0,15,0.00,,,0.00,Wunderground v.1.15,2014-01-22 16:15:00,
2014-01-22 08:20:00,58.1,9.1,30.37,SSE,154,3.0,5.0,14,0.00,,,0.00,Wunderground v.1.15,2014-01-22 16:20:00,
2014-01-22 08:25:00,58.3,9.2,30.37,SSE,154,2.0,5.0,14,0.00,,,0.00,Wunderground v.1.15,2014-01-22 16:25:00,
2014-01-22 08:35:00,58.4,9.3,30.37,South,182,3.0,11.0,14,0.00,,,0.00,Wunderground v.1.15,2014-01-22 16:35:00,
2014-01-22 08:45:00,58.6,9.5,30.37,South,187,2.0,3.0,14,0.00,,,0.00,Wunderground v.1.15,2014-01-22 16:45:00,
2014-01-22 08:50:00,58.8,9.6,30.37,South,186,2.0,11.0,14,0.00,,,0.00,Wunderground v.1.15,2014-01-22 16:50:00,
2014-01-22 09:00:00,59.0,9.8,30.36,South,174,4.0,7.0,14,0.00,,,0.00,Wunderground v.1.15,2014-01-22 17:00:00,
2014-01-22 09:05:00,59.1,9.9,30.37,SSE,163,4.0,7.0,14,0.00,,,0.00,Wunderground v.1.15,2014-01-22 17:05:00,
2014-01-22 09:15:00,58.6,11.0,30.37,SSE,153,4.0,8.0,15,0.00,,,0.00,Wunderground v.1.15,2014-01-22 17:15:00,
2014-01-22 09:20:00,58.3,10.8,30.37,SSE,167,4.0,7.0,15,0.00,,,0.00,Wunderground v.1.15,2014-01-22 17:20:00,
2014-01-22 09:25:00,57.8,10.4,30.37,SSE,160,6.0,7.0,15,0.00,,,0.00,Wunderground v.1.15,2014-01-22 17:25:00,
2014-01-22 09:35:00,58.1,10.6,30.37,South,175,5.0,9.0,15,0.00,,,0.00,Wunderground v.1.15,2014-01-22 17:35:00,
2014-01-22 09:50:00,58.8,11.2,30.37,SSE,166,5.0,9.0,15,0.00,,,0.00,Wunderground v.1.15,2014-01-22 17:50:00,
2014-01-22 10:00:00,59.2,11.5,30.37,SSE,165,6.0,6.0,15,0.00,,,0.00,Wunderground v.1.15,2014-01-22 18:00:00,
2014-01-22 10:05:00,59.3,11.6,30.37,South,169,6.0,10.0,15,0.00,,,0.00,Wunderground v.1.15,2014-01-22 18:05:00,
2014-01-22 10:15:00,59.8,10.4,30.37,South,185,3.0,10.0,14,0.00,,,0.00,Wunderground v.1.15,2014-01-22 18:15:00,
2014-01-22 10:20:00,60.4,10.9,30.37,SSE,164,2.0,10.0,14,0.00,,,0.00,Wunderground v.1.15,2014-01-22 18:20:00,
2014-01-22 10:30:00,60.9,9.6,30.36,SSE,161,4.0,4.0,13,0.00,,,0.00,Wunderground v.1.15,2014-01-22 18:30:00,
2014-01-22 10:35:00,61.2,9.9,30.36,SE,140,4.0,6.0,13,0.00,,,0.00,Wunderground v.1.15,2014-01-22 18:35:00,
2014-01-22 10:45:00,61.7,8.5,30.36,SSE,152,5.0,11.0,12,0.00,,,0.00,Wunderground v.1.15,2014-01-22 18:45:00,
2014-01-22 10:50:00,62.1,8.8,30.35,SE,144,6.0,11.0,12,0.00,,,0.00,Wunderground v.1.15,2014-01-22 18:50:00,
2014-01-22 10:55:00,62.5,7.2,30.35,SSE,150,7.0,11.0,11,0.00,,,0.00,Wunderground v.1.15,2014-01-22 18:55:00,
2014-01-22 11:00:00,62.7,7.3,30.34,SSE,157,6.0,6.0,11,0.00,,,0.00,Wunderground v.1.15,2014-01-22 19:00:00,
2014-01-22 11:05:00,63.1,7.7,30.34,SSE,152,6.0,8.0,11,0.00,,,0.00,Wunderground v.1.15,2014-01-22 19:05:00,
2014-01-22 11:15:00,63.3,5.7,30.33,ESE,104,7.0,12.0,10,0.00,,,0.00,Wunderground v.1.15,2014-01-22 19:15:00,
2014-01-22 11:20:00,63.4,5.8,30.33,ESE,104,6.0,12.0,10,0.00,,,0.00,Wunderground v.1.15,2014-01-22 19:20:00,
2014-01-22 11:30:00,63.9,6.2,30.32,SE,129,6.0,12.0,10,0.00,,,0.00,Wunderground v.1.15,2014-01-22 19:30:00,
2014-01-22 11:35:00,63.8,6.1,30.32,SSE,154,8.0,13.0,10,0.00,,,0.00,Wunderground v.1.15,2014-01-22 19:35:00,
2014-01-22 11:40:00,63.6,8.0,30.32,SSE,154,9.0,9.0,11,0.00,,,0.00,Wunderground v.1.15,2014-01-22 19:40:00,
2014-01-22 11:50:00,63.4,7.9,30.31,ESE,114,7.0,12.0,11,0.00,,,0.00,Wunderground v.1.15,2014-01-22 19:50:00,
2014-01-22 11:55:00,63.4,7.9,30.31,SSE,150,6.0,12.0,11,0.00,,,0.00,Wunderground v.1.15,2014-01-22 19:55:00,
2014-01-22 12:00:00,63.4,7.9,30.30,SSE,150,7.0,13.0,11,0.00,,,0.00,Wunderground v.1.15,2014-01-22 20:00:00,
2014-01-22 12:10:00,63.4,7.9,30.30,ESE,121,6.0,13.0,11,0.00,,,0.00,Wunderground v.1.15,2014-01-22 20:10:00,
2014-01-22 12:15:00,63.6,8.0,30.29,SSE,156,6.0,13.0,11,0.00,,,0.00,Wunderground v.1.15,2014-01-22 20:15:00,
2014-01-22 12:20:00,63.5,8.0,30.29,SSE,152,6.0,6.0,11,0.00,,,0.00,Wunderground v.1.15,2014-01-22 20:20:00,
2014-01-22 12:30:00,63.5,8.0,30.28,SSE,156,4.0,13.0,11,0.00,,,0.00,Wunderground v.1.15,2014-01-22 20:30:00,
2014-01-22 12:35:00,63.6,8.0,30.28,SSE,154,4.0,13.0,11,0.00,,,0.00,Wunderground v.1.15,2014-01-22 20:35:00,
2014-01-22 12:45:00,63.9,8.3,30.27,SE,130,4.0,13.0,11,0.00,,,0.00,Wunderground v.1.15,2014-01-22 20:45:00,
2014-01-22 12:50:00,64.3,8.6,30.27,SE,133,3.0,3.0,11,0.00,,,0.00,Wunderground v.1.15,2014-01-22 20:50:00,
2014-01-22 12:55:00,64.3,6.5,30.27,SSE,163,4.0,8.0,10,0.00,,,0.00,Wunderground v.1.15,2014-01-22 20:55:00,
2014-01-22 13:00:00,64.2,6.4,30.27,SSE,150,6.0,9.0,10,0.00,,,0.00,Wunderground v.1.15,2014-01-22 21:00:00,
2014-01-22 13:05:00,64.0,6.2,30.26,SE,125,5.0,9.0,10,0.00,,,0.00,Wunderground v.1.15,2014-01-22 21:05:00,
2014-01-22 13:15:00,64.3,6.5,30.26,SE,126,5.0,9.0,10,0.00,,,0.00,Wunderground v.1.15,2014-01-22 21:15:00,
2014-01-22 13:20:00,64.5,6.6,30.26,SE,141,5.0,5.0,10,0.00,,,0.00,Wunderground v.1.15,2014-01-22 21:20:00,
2014-01-22 13:30:00,64.2,6.4,30.26,SE,125,5.0,5.0,10,0.00,,,0.00,Wunderground v.1.15,2014-01-22 21:30:00,
2014-01-22 13:35:00,64.4,6.6,30.25,SE,133,4.0,11.0,10,0.00,,,0.00,Wunderground v.1.15,2014-01-22 21:35:00,
2014-01-22 13:40:00,64.5,6.6,30.25,SE,136,4.0,4.0,10,0.00,,,0.00,Wunderground v.1.15,2014-01-22 21:40:00,
2014-01-22 13:50:00,64.7,6.8,30.25,SSE,158,3.0,11.0,10,0.00,,,0.00,Wunderground v.1.15,2014-01-22 21:50:00,
2014-01-22 14:00:00,64.7,6.8,30.24,SSE,160,3.0,3.0,10,0.00,,,0.00,Wunderground v.1.15,2014-01-22 22:00:00,
2014-01-22 14:05:00,64.5,8.7,30.24,SSE,165,3.0,9.0,11,0.00,,,0.00,Wunderground v.1.15,2014-01-22 22:05:00,
2014-01-22 14:15:00,64.8,6.9,30.24,South,171,2.0,9.0,10,0.00,,,0.00,Wunderground v.1.15,2014-01-22 22:15:00,
2014-01-22 14:20:00,64.9,6.9,30.24,South,169,3.0,9.0,10,0.00,,,0.00,Wunderground v.1.15,2014-01-22 22:20:00,
2014-01-22 14:25:00,65.0,7.0,30.24,SE,145,2.0,9.0,10,0.00,,,0.00,Wunderground v.1.15,2014-01-22 22:25:00,
2014-01-22 14:35:00,65.2,7.2,30.24,South,180,1.0,9.0,10,0.00,,,0.00,Wunderground v.1.15,2014-01-22 22:35:00,
2014-01-22 14:45:00,65.4,7.3,30.23,SSE,152,3.0,9.0,10,0.00,,,0.00,Wunderground v.1.15,2014-01-22 22:45:00,
2014-01-22 14:50:00,65.5,7.4,30.23,South,181,2.0,9.0,10,0.00,,,0.00,Wunderground v.1.15,2014-01-22 22:50:00,
2014-01-22 15:00:00,65.5,5.1,30.23,SSE,163,2.0,2.0,9,0.00,,,0.00,Wunderground v.1.15,2014-01-22 23:00:00,
2014-01-22 15:05:00,65.8,5.3,30.22,SSE,163,0.0,9.0,9,0.00,,,0.00,Wunderground v.1.15,2014-01-22 23:05:00,
2014-01-22 15:10:00,65.7,7.6,30.22,SSE,149,1.0,9.0,10,0.00,,,0.00,Wunderground v.1.15,2014-01-22 23:10:00,
2014-01-22 15:15:00,65.9,5.4,30.23,SSE,148,1.0,9.0,9,0.00,,,0.00,Wunderground v.1.15,2014-01-22 23:15:00,
2014-01-22 15:20:00,65.9,5.4,30.23,SSE,159,2.0,9.0,9,0.00,,,0.00,Wunderground v.1.15,2014-01-22 23:20:00,
2014-01-22 15:30:00,65.9,5.4,30.23,South,169,1.0,1.0,9,0.00,,,0.00,Wunderground v.1.15,2014-01-22 23:30:00,
2014-01-22 15:35:00,66.4,5.8,30.23,South,169,1.0,7.0,9,0.00,,,0.00,Wunderground v.1.15,2014-01-22 23:35:00,
2014-01-22 15:45:00,66.5,5.8,30.23,SSE,163,0.0,7.0,9,0.00,,,0.00,Wunderground v.1.15,2014-01-22 23:45:00,
2014-01-22 15:50:00,65.9,2.8,30.23,ESE,119,2.0,2.0,8,0.00,,,0.00,Wunderground v.1.15,2014-01-22 23:50:00,
2014-01-22 16:00:00,65.9,5.4,30.23,ESE,113,1.0,1.0,9,0.00,,,0.00,Wunderground v.1.15,2014-01-23 00:00:00,
2014-01-22 16:05:00,66.0,2.9,30.23,ESE,113,0.0,7.0,8,0.00,,,0.00,Wunderground v.1.15,2014-01-23 00:05:00,
2014-01-22 16:10:00,65.7,5.2,30.23,ESE,106,1.0,1.0,9,0.00,,,0.00,Wunderground v.1.15,2014-01-23 00:10:00,
2014-01-22 16:20:00,65.2,4.9,30.22,ESE,117,1.0,1.0,9,0.00,,,0.00,Wunderground v.1.15,2014-01-23 00:20:00,
2014-01-22 16:30:00,65.0,4.7,30.22,ESE,117,0.0,7.0,9,0.00,,,0.00,Wunderground v.1.15,2014-01-23 00:30:00,
2014-01-22 16:35:00,64.8,4.5,30.23,ESE,117,1.0,7.0,9,0.00,,,0.00,Wunderground v.1.15,2014-01-23 00:35:00,
2014-01-22 16:45:00,64.4,6.6,30.22,ESE,117,0.0,6.0,10,0.00,,,0.00,Wunderground v.1.15,2014-01-23 00:45:00,
2014-01-22 16:50:00,64.0,6.2,30.22,ESE,117,0.0,6.0,10,0.00,,,0.00,Wunderground v.1.15,2014-01-23 00:50:00,
2014-01-22 18:20:00,54.1,5.9,30.23,WSW,258,3.0,7.0,14,0.00,,,0.00,Wunderground v.1.15,2014-01-23 02:20:00,
2014-01-22 18:25:00,54.2,5.9,30.23,WSW,258,2.0,7.0,14,0.00,,,0.00,Wunderground v.1.15,2014-01-23 02:25:00,
2014-01-22 18:30:00,54.0,5.8,30.22,WSW,258,2.0,7.0,14,0.00,,,0.00,Wunderground v.1.15,2014-01-23 02:30:00,
2014-01-22 18:40:00,53.0,6.5,30.22,WSW,258,2.0,6.0,15,0.00,,,0.00,Wunderground v.1.15,2014-01-23 02:40:00,
2014-01-22 18:45:00,52.4,6.0,30.22,WSW,258,2.0,6.0,15,0.00,,,0.00,Wunderground v.1.15,2014-01-23 02:45:00,
2014-01-22 18:50:00,52.2,5.9,30.22,WSW,258,3.0,3.0,15,0.00,,,0.00,Wunderground v.1.15,2014-01-23 02:50:00,
2014-01-22 19:00:00,52.0,7.1,30.22,WSW,258,2.0,5.0,16,0.00,,,0.00,Wunderground v.1.15,2014-01-23 03:00:00,
2014-01-22 19:05:00,51.2,6.5,30.22,WSW,258,3.0,5.0,16,0.00,,,0.00,Wunderground v.1.15,2014-01-23 03:05:00,
2014-01-22 19:15:00,50.1,6.9,30.22,West,263,5.0,5.0,17,0.00,,,0.00,Wunderground v.1.15,2014-01-23 03:15:00,
2014-01-22 19:20:00,50.7,7.4,30.22,West,266,4.0,4.0,17,0.00,,,0.00,Wunderground v.1.15,2014-01-23 03:20:00,
2014-01-22 19:30:00,51.4,8.0,30.22,West,267,4.0,4.0,17,0.00,,,0.00,Wunderground v.1.15,2014-01-23 03:30:00,
2014-01-22 19:35:00,51.7,6.9,30.22,West,267,4.0,7.0,16,0.00,,,0.00,Wunderground v.1.15,2014-01-23 03:35:00,
2014-01-22 19:45:00,51.2,7.8,30.22,West,269,5.0,7.0,17,0.00,,,0.00,Wunderground v.1.15,2014-01-23 03:45:00,
2014-01-22 19:50:00,51.7,8.2,30.22,West,271,5.0,7.0,17,0.00,,,0.00,Wunderground v.1.15,2014-01-23 03:50:00,
2014-01-22 20:00:00,51.5,8.0,30.22,West,269,4.0,7.0,17,0.00,,,0.00,Wunderground v.1.15,2014-01-23 04:00:00,
2014-01-22 20:05:00,51.4,8.0,30.23,West,263,4.0,7.0,17,0.00,,,0.00,Wunderground v.1.15,2014-01-23 04:05:00,
2014-01-22 20:10:00,51.3,7.9,30.23,West,260,5.0,7.0,17,0.00,,,0.00,Wunderground v.1.15,2014-01-23 04:10:00,
2014-01-22 20:15:00,51.2,7.8,30.23,West,269,5.0,7.0,17,0.00,,,0.00,Wunderground v.1.15,2014-01-23 04:15:00,
2014-01-22 20:20:00,51.2,7.8,30.23,West,273,5.0,7.0,17,0.00,,,0.00,Wunderground v.1.15,2014-01-23 04:20:00,
2014-01-22 20:30:00,52.7,7.7,30.24,West,271,5.0,5.0,16,0.00,,,0.00,Wunderground v.1.15,2014-01-23 04:30:00,
2014-01-22 20:35:00,52.8,7.8,30.23,West,264,4.0,8.0,16,0.00,,,0.00,Wunderground v.1.15,2014-01-23 04:35:00,
2014-01-22 20:45:00,52.5,7.5,30.24,WNW,284,4.0,8.0,16,0.00,,,0.00,Wunderground v.1.15,2014-01-23 04:45:00,
2014-01-22 20:50:00,51.8,8.3,30.23,WNW,282,4.0,4.0,17,0.00,,,0.00,Wunderground v.1.15,2014-01-23 04:50:00,
2014-01-22 20:55:00,51.9,9.6,30.23,WNW,282,4.0,5.0,18,0.00,,,0.00,Wunderground v.1.15,2014-01-23 04:55:00,
2014-01-22 21:00:00,52.1,9.8,30.23,West,261,4.0,8.0,18,0.00,,,0.00,Wunderground v.1.15,2014-01-23 05:00:00,
2014-01-22 21:05:00,51.1,9.0,30.23,West,262,5.0,8.0,18,0.00,,,0.00,Wunderground v.1.15,2014-01-23 05:05:00,
2014-01-22 21:10:00,51.1,9.0,30.23,West,265,6.0,8.0,18,0.00,,,0.00,Wunderground v.1.15,2014-01-23 05:10:00,
2014-01-22 21:20:00,52.1,9.8,30.23,West,271,6.0,8.0,18,0.00,,,0.00,Wunderground v.1.15,2014-01-23 05:20:00,
2014-01-22 21:25:00,52.3,10.0,30.23,WSW,256,6.0,8.0,18,0.00,,,0.00,Wunderground v.1.15,2014-01-23 05:25:00,
2014-01-22 21:30:00,52.3,10.0,30.24,West,260,5.0,8.0,18,0.00,,,0.00,Wunderground v.1.15,2014-01-23 05:30:00,
2014-01-22 21:35:00,51.5,10.5,30.24,WNW,285,5.0,9.0,19,0.00,,,0.00,Wunderground v.1.15,2014-01-23 05:35:00,
2014-01-22 21:45:00,51.8,11.9,30.24,WNW,282,5.0,9.0,20,0.00,,,0.00,Wunderground v.1.15,2014-01-23 05:45:00,
2014-01-22 21:50:00,52.2,12.3,30.24,West,281,4.0,4.0,20,0.00,,,0.00,Wunderground v.1.15,2014-01-23 05:50:00,
2014-01-22 21:55:00,51.7,11.9,30.24,WNW,289,3.0,9.0,20,0.00,,,0.00,Wunderground v.1.15,2014-01-23 05:55:00,
2014-01-22 22:00:00,51.3,12.6,30.24,WNW,292,3.0,8.0,21,0.00,,,0.00,Wunderground v.1.15,2014-01-23 06:00:00,
2014-01-22 22:05:00,51.4,12.7,30.24,WNW,287,3.0,8.0,21,0.00,,,0.00,Wunderground v.1.15,2014-01-23 06:05:00,
2014-01-22 22:15:00,51.8,13.0,30.24,West,279,2.0,8.0,21,0.00,,,0.00,Wunderground v.1.15,2014-01-23 06:15:00,
2014-01-22 22:20:00,51.2,12.5,30.24,WNW,293,1.0,8.0,21,0.00,,,0.00,Wunderground v.1.15,2014-01-23 06:20:00,
2014-01-22 22:30:00,49.7,12.3,30.24,WNW,293,1.0,8.0,22,0.00,,,0.00,Wunderground v.1.15,2014-01-23 06:30:00,
2014-01-22 22:35:00,49.6,13.3,30.24,WNW,289,2.0,8.0,23,0.00,,,0.00,Wunderground v.1.15,2014-01-23 06:35:00,
2014-01-22 22:40:00,49.6,13.3,30.24,WNW,289,3.0,6.0,23,0.00,,,0.00,Wunderground v.1.15,2014-01-23 06:40:00,
2014-01-22 22:45:00,49.6,13.3,30.24,WNW,289,3.0,6.0,23,0.00,,,0.00,Wunderground v.1.15,2014-01-23 06:45:00,
2014-01-22 22:50:00,49.1,12.8,30.24,WNW,289,3.0,6.0,23,0.00,,,0.00,Wunderground v.1.15,2014-01-23 06:50:00,
2014-01-22 23:00:00,49.1,13.8,30.24,WNW,283,2.0,5.0,24,0.00,,,0.00,Wunderground v.1.15,2014-01-23 07:00:00,
2014-01-22 23:05:00,48.6,13.4,30.24,WNW,283,2.0,5.0,24,0.00,,,0.00,Wunderground v.1.15,2014-01-23 07:05:00,
2014-01-22 23:15:00,47.3,13.2,30.24,WNW,283,2.0,5.0,25,0.00,,,0.00,Wunderground v.1.15,2014-01-23 07:15:00,
2014-01-22 23:20:00,46.9,12.9,30.24,WNW,283,1.0,1.0,25,0.00,,,0.00,Wunderground v.1.15,2014-01-23 07:20:00,
2014-01-22 23:30:00,46.1,13.1,30.24,WNW,283,0.0,5.0,26,0.00,,,0.00,Wunderground v.1.15,2014-01-23 07:30:00,
2014-01-22 23:35:00,45.9,12.9,30.24,WNW,283,0.0,5.0,26,0.00,,,0.00,Wunderground v.1.15,2014-01-23 07:35:00,
2014-01-22 23:45:00,46.5,12.5,30.23,WNW,283,1.0,4.0,25,0.00,,,0.00,Wunderground v.1.15,2014-01-23 07:45:00,
2014-01-22 23:55:00,47.4,12.4,30.23,WNW,285,3.0,4.0,24,0.00,,,0.00,Wunderground v.1.15,2014-01-23 07:55:00,